EW4107 Weather Reports


Display with metric or nautical units.
time (UTC)temp
F
wind
direction
speed
MPH
gust
MPH
rain 1hr
in
rain 24hr
in
rain mn
in
humidity
%
barometer
mb
20260506154531 63 161 6.0 13.0 0.04 0.04 0.04 1 1005.4
20260506153027 63 193 6.0 13.0 0.02 0.02 0.02 1 1005.4
20260506151522 63 184 5.0 10.0 0.00 0.00 0.00 1 1005.3
20260506150018 63 175 7.0 10.0 0.00 0.00 0.00 1 1005.5
20260506144522 63 204 7.0 15.0 0.00 0.00 0.00 7 1005.8
20260506143009 63 200 8.0 13.0 0.00 0.00 0.00 17 1005.8
20260506141516 64 200 8.0 17.0 0.00 0.00 0.00 29 1005.8
20260506140100 64 174 10.0 18.0 0.00 0.00 0.00 31 1005.7
20260506134555 64 200 7.0 14.0 0.00 0.00 0.00 26 1005.5
20260506133106 64 178 9.0 16.0 0.00 0.00 0.00 27 1005.3
20260506131553 64 173 7.0 17.0 0.00 0.00 0.00 24 1005.2
20260506130042 63 167 7.0 12.0 0.00 0.00 0.00 20 1005.5
20260506124538 63 173 8.0 13.0 0.00 0.00 0.00 21 1005.4
20260506123039 62 169 8.0 15.0 0.00 0.00 0.00 18 1005.9
20260506121534 62 178 6.0 16.0 0.00 0.00 0.00 17 1006.0
20260506120049 61 188 7.0 14.0 0.00 0.00 0.00 18 1006.2
20260506114525 61 173 8.0 15.0 0.00 0.00 0.00 19 1005.7
20260506113021 61 161 8.0 14.0 0.00 0.00 0.00 22 1005.6
20260506111516 61 192 9.0 17.0 0.00 0.00 0.00 26 1005.5
20260506110012 61 165 8.0 21.0 0.00 0.00 0.00 28 1005.6
20260506104509 61 185 8.0 16.0 0.00 0.00 0.00 32 1005.3
20260506103010 61 169 9.0 16.0 0.00 0.00 0.00 35 1005.4
20260506101559 61 147 7.0 12.0 0.00 0.00 0.00 38 1005.6
20260506094556 61 141 7.0 11.0 0.00 0.00 0.00 44 1005.2
20260506093046 62 144 6.0 17.0 0.00 0.00 0.00 46 1005.1
20260506091541 62 156 9.0 13.0 0.00 0.00 0.00 38 1005.1
20260506090038 57 190 4.0 8.0 0.00 0.00 0.00 1 1005.1
20260506084607 54 344 0.0 3.0 0.00 0.00 0.00 1 1005.5
20260506083028 54 344 1.0 2.0 0.00 0.00 0.00 1 1005.6
20260506081534 55 344 0.0 1.0 0.00 0.00 0.00 1 1005.7
20260506073010 56 344 0.0 2.0 0.00 0.00 0.00 1 1005.8
20260506071506 57 344 1.0 4.0 0.00 0.00 0.00 1 1006.1
20260506061554 59 344 0.0 2.0 0.00 0.00 0.00 20 1006.5
20260506044534 69 227 0.0 7.0 0.00 0.00 0.00 52 1006.5
20260506043023 70 204 2.0 7.0 0.00 0.00 0.00 50 1006.3
20260506041519 71 203 8.0 18.0 0.00 0.00 0.00 48 1006.0
20260506040017 71 214 10.0 16.0 0.00 0.00 0.00 47 1005.9
20260506034517 71 211 7.0 18.0 0.00 0.00 0.00 46 1005.7
20260506033015 72 224 10.0 16.0 0.00 0.00 0.00 45 1005.7
20260506031515 72 221 8.0 16.0 0.00 0.00 0.00 44 1005.6
20260506030015 73 184 8.0 15.0 0.00 0.00 0.00 42 1005.7
20260506024513 73 215 9.0 15.0 0.00 0.00 0.00 42 1005.6
20260506023016 73 197 6.0 15.0 0.00 0.00 0.00 42 1005.7
20260506021512 73 221 11.0 17.0 0.00 0.00 0.00 41 1005.7
20260506020011 74 198 10.0 18.0 0.00 0.00 0.00 41 1005.7
20260506014510 74 200 10.0 16.0 0.00 0.00 0.00 42 1005.6
20260506013013 74 225 10.0 16.0 0.00 0.00 0.00 42 1005.3
20260506011510 74 226 10.0 21.0 0.00 0.00 0.00 42 1005.3
20260506010013 73 221 10.0 20.0 0.00 0.00 0.00 44 1005.1
20260506004511 69 234 4.0 10.0 0.00 0.00 0.00 53 1005.1
20260506003008 66 164 2.0 6.0 0.00 0.00 0.00 58 1004.8
20260506001507 67 169 3.0 4.0 0.00 0.00 0.00 58 1004.6
20260506000006 68 174 1.0 3.0 0.00 0.00 0.00 58 1004.5
20260505234506 69 175 3.0 6.0 0.00 0.00 0.00 57 1004.4
20260505233005 70 323 2.0 12.0 0.00 0.00 0.00 54 1004.4
20260505231503 72 351 3.0 9.0 0.00 0.00 0.00 49 1004.2
20260505230001 76 321 3.0 11.0 0.00 0.00 0.00 40 1004.2
20260505224501 76 242 9.0 19.0 0.00 0.00 0.00 37 1003.9
20260505223002 77 220 8.0 19.0 0.00 0.00 0.00 36 1003.6
20260505221604 77 218 10.0 22.0 0.00 0.00 0.00 36 1003.5
20260505214600 78 225 13.0 22.0 0.00 0.00 0.00 34 1003.0
20260505213058 78 223 13.0 26.0 0.00 0.00 0.00 33 1002.7
20260505211557 80 221 16.0 30.0 0.00 0.00 0.00 34 1002.7
20260505210056 79 222 19.0 30.0 0.00 0.00 0.00 33 1002.4
20260505204555 79 238 17.0 26.0 0.00 0.00 0.00 34 1002.6
20260505203112 79 226 20.0 24.0 0.00 0.00 0.00 35 1002.7
20260505201600 79 214 15.0 27.0 0.00 0.00 0.00 37 1002.9
20260505200054 79 214 16.0 32.0 0.00 0.00 0.00 37 1002.7
20260505194548 79 226 17.0 29.0 0.00 0.00 0.00 39 1002.9
20260505193046 79 192 18.0 26.0 0.00 0.00 0.00 39 1003.0
20260505191552 79 238 19.0 28.0 0.00 0.00 0.00 39 1003.2
20260505190042 79 214 16.0 32.0 0.00 0.00 0.00 39 1003.4
20260505184541 78 205 20.0 28.0 0.00 0.00 0.00 39 1003.4
20260505183039 78 222 16.0 32.0 0.00 0.00 0.00 39 1003.7
20260505181543 78 189 15.0 28.0 0.00 0.00 0.00 39 1003.8
20260505180038 78 215 16.0 32.0 0.00 0.00 0.00 39 1003.7
20260505174541 78 188 18.0 25.0 0.00 0.00 0.00 41 1004.0
20260505173033 78 187 15.0 25.0 0.00 0.00 0.00 41 1004.1
20260505171529 77 209 14.0 23.0 0.00 0.00 0.00 46 1004.3
20260505170026 76 170 14.0 24.0 0.00 0.00 0.00 45 1004.5
20260505164524 76 211 13.0 22.0 0.00 0.00 0.00 46 1004.6
20260505163026 75 179 16.0 24.0 0.00 0.00 0.00 46 1005.0
20260505161517 75 203 13.0 18.0 0.00 0.00 0.00 49 1005.2